Voltar ao catálogo

STARLINK-31927

AtivoComunicaçõesVLEO
NORAD 59837·PAYLOAD·🇺🇸 United States

Lançado May 23, 2024 de Cape Canaveral Space Force Station

Loading…

Próximas Passagens (próximas 24 horas)

TLE

AtualizadoSource: CelesTrak SupGP

Época: Sep 14, 2026, 20:38 UTC

1 59837C 24097C   26257.86020833 -.00010928  00000+0 -39588-3 0  2570
2 59837  43.0002 286.0464 0001477 266.7071 241.8038 15.27579124    11

Acompanhe STARLINK-31927 em tempo real com AllMySat

Download on the App Store